Theta_e
337 337 336 335 334 334 333 332 331 330 330 328 328 326 325 325 326 327 324 324 326 333 332 330 329 329 329 328 328 327 327 327 327 327 326 325 328 332 334 335 335 334 333 334 333 333 333 333 332 332 332 331 329 330 331 330 330 329 329 329 329 329 329 328 328 328 328 328 327 327 327 327 328 328 328 328 328 327 327 327 327 328 328 328 328
336 336 336 335 334 333 333 331 330 329 330 330 327 326 325 324 325 325 324 323 327 333 331 330 330 330 329 329 328 328 327 327 327 327 326 326 327 332 335 337 337 336 336 334 333 333 333 333 333 333 332 331 331 331 331 329 329 330 329 330 329 329 329 329 329 329 329 329 328 328 328 328 328 327 327 328 327 327 327 327 327 327 327 327 327
336 336 335 335 334 333 332 330 329 329 329 330 327 328 326 325 325 325 323 325 328 332 330 330 329 330 330 329 328 328 328 328 328 328 327 326 326 328 333 335 335 336 337 337 335 334 333 333 333 332 332 332 332 331 331 330 330 331 331 331 330 330 331 330 330 329 329 329 329 329 329 329 328 328 328 327 327 328 327 327 327 327 327 327 327
335 335 335 334 334 333 332 330 330 329 330 329 328 328 325 326 327 329 328 329 330 329 329 329 327 328 328 328 328 328 328 329 329 328 327 325 325 325 327 331 335 335 336 337 337 334 334 334 333 333 332 333 333 333 332 332 332 332 332 332 332 332 332 332 332 331 330 330 329 329 329 328 328 328 328 328 327 327 327 327 327 327 327 327 327
334 335 336 334 334 332 331 332 331 331 330 329 329 327 328 328 328 329 329 330 329 328 329 327 327 325 327 327 327 328 328 329 328 327 326 324 324 326 326 330 331 338 336 333 334 334 334 335 335 335 334 334 334 334 333 333 334 334 334 334 333 333 333 333 333 333 332 331 330 330 330 329 329 328 328 327 327 327 326 326 327 327 326 327 327
333 332 334 332 332 332 332 331 330 330 329 329 329 328 328 328 327 329 332 329 328 327 327 325 324 324 325 326 327 327 328 328 327 326 326 326 324 324 326 326 326 328 332 337 338 338 338 336 336 335 335 334 334 334 335 335 335 334 334 334 333 333 334 334 334 334 334 333 332 331 331 330 330 329 329 328 327 327 326 326 326 326 326 326 326
332 332 331 332 331 330 331 332 332 332 331 331 330 330 329 327 328 328 327 327 326 326 325 325 325 326 326 327 328 328 327 327 326 326 326 325 325 325 325 326 327 330 331 329 338 338 338 338 336 335 335 334 334 334 335 335 335 335 334 334 333 333 334 334 334 334 334 334 333 333 333 331 330 329 329 329 328 328 328 327 326 326 326 326 326
331 331 331 332 331 330 331 333 333 333 332 330 330 329 327 327 327 329 328 327 327 325 324 324 326 327 328 328 328 328 327 326 326 326 326 326 326 325 325 326 326 328 334 326 329 335 337 336 337 337 335 334 335 335 334 334 334 334 333 333 333 334 334 334 334 335 334 334 334 334 333 332 331 331 330 329 329 328 328 328 327 327 326 326 326
332 331 331 331 331 330 330 332 334 333 332 331 329 329 328 327 326 326 330 328 328 326 326 326 326 327 327 328 328 328 328 326 325 326 327 326 324 324 324 325 330 335 326 327 328 329 336 336 335 336 335 337 334 335 334 334 334 334 334 334 334 334 335 335 335 335 335 334 334 333 333 333 332 331 330 329 329 328 328 328 327 326 326 326 325
332 331 330 331 331 331 329 332 333 334 331 329 328 328 328 327 325 324 327 328 327 327 326 326 327 326 326 326 327 328 328 326 325 329 326 327 327 324 324 326 327 327 328 328 329 328 328 332 335 335 335 334 335 332 334 333 334 335 334 334 334 335 335 336 336 335 335 334 334 333 332 333 332 333 331 330 329 329 329 328 327 326 326 325 325
332 331 331 332 330 329 330 330 332 332 329 328 327 328 328 326 326 325 325 326 329 328 327 327 326 326 325 326 327 328 328 329 328 326 326 327 327 328 325 325 327 328 328 329 328 325 324 324 326 326 326 335 334 334 334 334 334 334 333 335 334 336 335 336 335 334 334 333 331 330 329 331 332 332 331 330 330 329 329 327 327 327 325 325 324
331 331 332 332 330 329 329 330 331 331 329 327 327 327 326 326 325 325 326 329 330 329 329 327 326 325 325 327 328 329 330 330 329 328 329 329 326 325 324 324 328 328 328 327 326 326 327 329 330 327 329 333 335 331 334 331 331 333 335 334 335 335 335 335 334 333 332 330 329 328 329 329 329 332 332 331 330 330 329 328 328 327 326 325 325
332 331 331 334 330 329 329 330 331 330 329 328 328 327 327 327 326 325 326 327 328 329 327 326 324 324 326 326 326 330 330 329 328 328 327 328 326 325 325 326 328 328 327 325 325 327 327 328 328 324 325 325 329 335 333 331 330 334 334 334 335 337 335 334 333 332 330 328 328 329 330 332 331 332 332 330 331 330 330 328 325 325 325 325 326
333 331 331 331 329 329 329 330 332 331 330 329 328 329 327 326 326 323 325 328 327 328 327 326 321 321 320 321 323 326 327 327 326 326 327 327 325 324 324 326 328 327 324 325 326 326 323 323 322 325 325 326 325 326 329 329 329 334 334 334 334 333 332 332 331 329 327 328 328 332 332 333 332 331 332 331 331 330 327 326 326 326 327 328 329
332 332 330 330 330 330 329 330 330 332 330 328 328 326 327 326 325 325 326 328 328 328 327 323 321 323 323 320 318 317 321 324 326 326 327 326 325 324 323 324 327 324 323 322 323 324 323 322 324 327 327 324 323 324 328 330 330 334 335 333 331 332 332 331 330 328 328 328 331 333 333 333 333 332 332 332 331 329 329 329 329 330 329 328 327
332 332 331 330 329 329 329 330 330 331 330 329 328 326 326 325 325 326 327 325 326 325 327 323 324 322 316 316 317 317 314 317 320 324 327 325 326 325 323 324 325 323 321 322 322 324 324 323 327 327 325 322 321 322 324 325 331 331 331 330 332 330 330 330 330 329 328 329 333 333 333 333 333 332 331 331 330 330 330 330 329 328 327 326 325
332 332 331 330 329 329 329 330 330 329 330 330 328 327 326 326 326 325 326 326 324 325 326 325 324 323 320 316 314 314 314 318 320 320 324 324 325 325 326 324 325 322 321 322 324 324 324 324 326 325 323 320 319 319 319 320 322 328 327 331 331 330 329 329 328 329 328 331 334 334 332 332 332 331 330 330 330 330 329 328 327 326 325 324 323
332 332 332 332 329 329 329 329 328 328 329 330 329 328 326 326 326 326 325 327 327 325 324 325 324 322 320 316 318 314 314 319 319 312 322 323 324 326 325 324 323 322 320 322 324 324 325 324 323 322 320 318 317 317 317 317 321 315 315 322 327 329 329 329 328 328 329 331 334 333 333 332 331 331 330 330 330 329 328 326 325 324 323 322 322
330 332 332 332 330 329 328 329 329 328 330 329 328 327 327 327 327 326 326 326 326 324 324 324 323 321 321 319 319 317 321 318 314 317 314 319 322 322 322 324 324 324 322 324 323 323 324 325 322 320 317 316 316 315 317 319 323 324 326 325 323 320 322 325 328 329 329 330 334 333 333 333 331 330 330 329 328 327 326 324 323 322 321 320 320
330 331 332 332 330 329 328 328 328 328 330 329 328 327 327 328 328 328 326 326 325 324 324 325 322 321 320 319 319 319 321 314 318 316 314 313 316 322 321 320 322 324 324 322 321 322 323 322 321 318 316 315 314 313 312 311 309 311 316 321 320 320 320 321 321 322 327 327 331 332 332 331 330 329 327 326 325 324 323 322 321 320 320 320 320
330 330 331 331 331 329 328 327 327 328 331 328 328 328 327 326 326 326 325 325 325 324 325 324 323 320 319 314 317 317 316 315 317 315 313 314 315 317 318 320 319 318 320 320 320 321 323 322 320 318 317 314 312 311 311 309 309 310 318 318 319 319 319 317 313 314 316 326 326 328 329 329 328 327 325 324 323 322 322 321 320 320 319 319 319
328 330 330 330 329 329 328 327 327 328 330 328 328 328 328 327 327 326 326 325 324 325 324 324 324 321 321 317 314 314 315 314 314 312 313 313 313 315 318 317 316 316 317 318 320 320 321 320 318 316 314 313 312 310 309 309 309 312 315 318 319 319 320 318 312 315 316 319 326 326 328 328 328 326 325 324 324 322 322 321 321 320 320 319 318
327 328 329 329 328 329 328 328 328 329 330 328 328 328 328 327 327 326 326 325 324 324 323 323 323 322 320 320 319 319 317 314 315 314 312 310 314 316 319 319 317 314 316 317 320 321 321 317 316 315 314 313 311 311 309 308 316 316 318 318 319 319 318 314 312 313 317 321 322 324 324 325 325 324 323 323 323 323 323 322 321 320 320 318 317
326 327 327 328 328 328 329 328 328 328 329 329 329 328 328 328 327 326 326 326 325 324 323 322 321 321 320 319 320 320 318 317 317 317 315 313 316 316 317 318 317 313 314 314 319 320 318 316 315 315 313 312 310 309 310 311 312 319 315 317 317 316 318 317 312 313 313 318 320 324 324 324 323 323 323 323 323 323 323 323 322 321 319 319 318
324 325 326 327 327 327 327 328 328 329 330 329 328 329 327 326 327 326 325 325 325 324 323 322 323 322 321 319 320 320 318 317 318 317 315 316 317 316 318 318 313 311 309 313 312 315 316 315 314 313 312 311 311 311 310 310 310 317 316 316 315 314 315 319 318 313 312 313 317 322 325 324 324 325 324 324 323 323 324 322 316 313 316 317 317
325 325 326 327 327 328 328 329 329 328 329 328 328 328 327 326 326 326 325 325 324 324 324 323 323 323 322 320 319 320 317 319 319 318 316 316 316 317 317 314 308 309 308 309 309 312 310 312 311 311 311 310 309 308 308 309 311 317 315 310 311 313 313 317 318 315 312 309 310 315 319 322 324 323 323 324 321 317 314 310 310 311 309 309 313
326 327 326 326 327 327 327 326 327 327 328 327 328 328 327 327 327 327 326 325 324 324 323 322 323 322 320 321 321 320 318 319 319 319 319 318 317 317 317 312 306 306 306 306 306 313 309 306 309 310 310 309 307 307 307 307 312 317 315 308 306 312 312 314 317 316 312 309 307 307 310 312 312 312 312 312 310 309 312 314 311 308 309 310 313
327 325 325 326 326 326 326 327 327 327 327 327 327 328 327 327 326 326 325 327 324 323 322 322 323 322 321 319 321 321 320 320 320 319 319 319 319 318 318 315 309 304 304 303 303 307 305 307 306 309 309 308 307 306 310 310 309 315 313 305 306 307 309 310 314 315 313 311 310 308 306 306 306 307 307 308 311 312 313 313 311 309 308 313 315
326 326 325 325 326 326 326 327 326 326 327 327 328 328 327 327 326 325 325 325 324 323 321 322 322 321 320 320 322 321 320 320 321 319 319 319 319 320 319 316 313 308 304 302 301 303 300 305 307 305 308 308 308 306 307 305 310 311 305 304 304 302 308 310 310 309 309 308 308 307 306 306 307 308 310 312 312 313 312 310 310 309 310 313 313
326 326 325 325 326 330 327 326 325 325 326 327 328 328 327 327 326 326 326 325 324 322 322 322 321 321 320 320 320 320 319 321 321 320 319 319 319 319 318 315 313 310 307 304 303 301 300 302 303 303 305 307 307 307 307 305 312 309 304 303 302 302 307 308 307 304 305 306 304 304 304 305 308 310 312 312 312 311 309 309 308 309 311 312 313
325 325 325 325 325 325 326 326 326 326 326 327 327 327 327 326 325 325 325 325 324 322 321 322 321 322 320 320 317 319 319 321 320 319 319 319 319 319 317 315 314 310 309 307 302 303 301 303 302 302 305 306 308 307 308 306 311 308 303 302 302 305 309 307 306 305 304 305 303 303 305 306 306 308 311 313 313 312 311 311 311 310 312 312 311
324 325 326 325 324 324 325 326 325 325 325 326 327 326 326 325 324 324 324 324 324 323 321 322 323 322 321 320 319 319 318 319 319 319 319 319 319 318 317 314 312 311 309 307 305 306 301 303 303 301 305 305 307 306 304 306 310 310 302 301 302 309 306 302 306 305 305 304 304 304 309 311 308 310 311 313 312 312 312 311 311 312 312 309 308
324 324 324 324 324 325 325 325 325 324 325 325 326 326 325 324 324 324 324 325 324 322 322 321 322 322 322 321 320 319 319 320 319 319 319 319 318 318 317 313 312 309 309 306 304 298 299 301 302 302 303 306 305 306 305 304 305 305 304 300 301 301 302 302 301 304 304 304 303 302 303 304 305 309 309 308 310 309 309 307 308 309 309 307 306
325 325 325 325 324 325 325 326 326 325 325 325 325 325 325 324 323 324 324 324 323 322 321 322 321 323 321 321 321 319 320 321 319 320 320 319 319 318 317 315 312 308 308 307 302 298 297 300 300 301 302 305 304 304 304 303 304 304 302 301 300 300 301 301 300 301 304 304 303 302 302 302 303 304 304 304 305 305 306 305 303 304 306 304 303
324 324 325 324 325 325 325 325 324 324 324 324 323 324 324 324 323 323 323 323 322 321 321 321 322 321 320 320 320 320 320 319 318 319 319 319 319 319 318 317 314 310 306 306 301 300 298 299 300 300 301 302 302 302 303 303 303 305 303 301 301 302 303 300 300 300 301 302 302 302 302 301 302 302 302 303 304 303 304 304 302 302 302 302 301
323 324 325 325 325 324 323 322 322 322 323 323 322 324 325 324 323 323 321 322 322 322 322 322 322 322 321 319 319 319 319 319 317 316 317 319 319 320 319 317 318 315 308 303 305 304 300 300 300 301 301 301 300 299 302 301 301 304 304 302 301 301 302 302 300 299 301 302 302 302 303 302 301 301 301 301 302 303 303 302 302 301 300 301 301
323 323 324 324 323 323 322 321 321 321 322 322 322 321 322 323 323 323 321 321 321 321 322 322 325 322 321 321 320 320 319 319 315 316 317 318 320 319 317 318 318 316 313 306 303 304 301 300 300 300 301 300 300 299 301 299 297 300 300 302 303 302 302 302 302 302 303 302 302 302 302 301 301 300 300 300 300 301 301 302 302 302 302 301 301
323 323 322 322 323 323 321 319 319 319 320 320 320 320 320 319 320 320 320 320 320 319 319 320 322 321 321 321 320 321 320 320 318 316 316 318 317 317 317 318 318 315 311 307 303 302 302 302 301 299 299 300 299 298 299 299 298 297 298 299 299 301 303 303 303 304 304 302 301 301 302 302 301 301 301 301 300 299 299 301 301 302 302 302 301
322 321 322 322 321 319 315 314 313 313 313 314 314 314 315 316 317 317 318 318 317 316 316 318 320 320 320 319 318 320 321 320 319 318 317 316 317 316 317 317 319 315 312 308 303 301 301 300 299 300 300 300 300 299 299 299 298 297 297 297 297 299 301 302 303 304 304 304 302 301 301 301 302 302 301 301 300 301 300 300 301 302 302 301 301
319 321 321 318 314 312 310 309 308 309 309 309 308 309 312 314 314 314 316 316 315 313 313 314 316 318 317 317 318 319 321 321 320 318 318 316 315 315 316 317 316 313 311 305 302 301 300 300 300 299 299 299 299 298 299 299 297 297 298 297 296 297 298 301 303 303 304 303 303 303 302 301 301 302 301 301 302 301 301 301 302 302 302 301 300
317 319 317 313 310 307 306 306 305 306 306 304 304 305 310 312 313 313 313 315 314 314 313 314 315 315 315 314 314 315 318 324 317 316 316 316 316 315 313 314 315 313 308 304 303 300 299 300 300 299 298 298 299 298 296 296 297 299 299 298 297 298 298 299 300 302 304 303 303 302 302 302 301 300 300 300 300 301 301 302 302 303 302 300 299
314 313 312 311 307 305 304 303 303 302 301 301 301 299 304 309 311 313 313 313 315 315 315 314 312 313 312 311 316 319 315 315 312 309 307 310 313 317 314 316 315 313 309 307 303 301 300 299 300 299 298 299 299 299 299 299 300 299 297 298 297 299 298 298 299 301 303 303 303 302 304 304 302 301 300 300 302 302 301 300 300 301 301 299 299
312 310 309 307 305 305 304 302 301 300 298 298 295 294 296 304 310 312 314 314 314 315 315 315 313 311 309 309 310 314 311 308 304 300 303 304 305 308 309 312 315 314 310 309 307 302 301 301 299 299 299 299 300 300 300 299 298 299 298 296 299 298 297 296 297 299 300 303 301 301 303 303 301 301 302 301 302 301 300 300 300 300 299 299 299
309 308 306 304 303 302 301 301 300 299 298 296 293 295 296 301 307 312 313 315 315 314 312 313 312 310 309 307 305 307 310 310 305 303 303 299 297 296 295 294 294 295 301 309 307 303 301 300 300 300 299 299 298 298 298 300 298 297 298 297 297 297 296 296 295 298 299 302 300 298 301 299 300 301 301 303 303 301 301 300 299 299 299 299 299
306 304 302 302 300 300 300 300 299 299 298 294 294 296 297 301 302 308 312 312 313 312 312 311 310 308 306 305 303 302 304 311 308 304 303 301 299 299 300 300 299 297 295 295 298 304 304 303 302 300 299 299 300 300 300 299 299 301 299 299 299 298 299 297 299 299 299 300 300 299 300 301 298 297 299 302 302 300 300 300 300 299 299 299 298
303 301 300 299 299 299 300 300 299 298 298 295 295 298 299 299 300 305 311 311 310 310 309 308 307 304 302 301 300 300 300 302 304 305 305 304 306 308 306 304 303 302 298 297 298 299 302 303 302 301 302 301 302 303 305 303 304 302 300 300 300 300 299 300 302 302 302 302 302 298 296 300 296 298 298 301 302 300 301 300 299 298 298 298 298
300 298 298 297 298 298 298 299 298 297 296 294 296 297 298 298 299 302 307 306 303 302 301 300 299 299 298 298 297 297 298 299 301 306 309 309 308 306 303 301 300 300 300 301 302 303 305 307 307 306 304 304 305 304 304 304 305 304 304 304 303 303 302 301 302 299 299 301 300 300 299 296 293 295 298 301 302 300 300 299 299 298 298 298 298
297 296 295 296 296 296 297 297 297 296 295 294 296 297 297 297 299 304 303 302 300 299 298 298 297 297 297 297 296 295 295 297 297 300 305 310 309 306 303 300 298 298 299 300 295 297 301 303 305 305 304 302 298 301 300 301 302 301 303 304 304 301 301 300 302 297 298 298 300 300 297 296 294 297 298 296 297 299 300 298 298 299 298 298 298
296 295 294 294 295 295 295 295 295 295 295 294 295 296 296 297 299 302 300 299 298 298 298 299 299 300 299 296 295 294 294 294 293 294 297 302 304 302 300 298 297 296 296 299 297 294 295 295 295 295 296 297 297 296 296 296 297 299 301 303 302 299 301 300 297 296 298 295 296 300 298 299 297 296 298 295 296 299 300 301 299 298 298 298 298
295 295 295 295 295 296 295 295 295 295 294 294 294 296 296 297 300 301 300 298 297 297 296 297 298 298 300 302 299 295 294 294 291 292 294 298 299 298 296 295 295 294 295 296 298 298 296 296 295 295 296 296 297 297 297 298 298 299 304 301 300 299 298 296 297 293 295 296 296 299 301 300 295 297 299 298 295 295 296 294 295 297 298 297 297
296 297 297 296 296 296 296 297 299 295 294 295 293 294 296 297 300 301 300 298 297 296 296 296 297 297 297 297 297 296 295 293 291 292 293 296 296 295 295 295 294 294 294 294 295 296 297 298 299 300 299 299 301 301 301 298 298 301 302 301 300 301 302 301 299 297 296 295 297 301 301 296 299 297 299 298 297 297 293 293 294 294 294 295 295
Wind_Speed
5 5 4 4 3 3 4 4 3 3 2 2 3 3 1 1 0 1 3 4 3 6 5 3 4 5 6 6 4 4 4 4 3 3 3 3 3 6 9 9 7 7 8 8 7 8 9 10 10 9 9 10 9 9 9 9 8 7 7 7 7 8 8 8 8 8 8 8 8 8 9 10 10 11 11 11 11 12 13 13 14 14 14 14 15
5 5 5 5 4 4 4 3 4 2 3 3 3 4 4 1 1 1 1 3 2 5 5 4 4 4 5 6 5 4 4 3 4 3 3 3 3 5 9 7 5 6 7 7 7 7 8 9 10 9 9 9 9 9 9 8 7 7 7 7 6 7 7 7 7 7 7 7 7 7 8 8 9 10 11 11 11 12 13 13 13 14 14 14 14
5 6 5 5 4 4 4 3 3 4 4 4 3 3 3 3 3 3 2 4 4 4 6 5 4 4 4 6 5 4 4 3 3 3 4 3 3 2 4 8 7 6 4 5 7 7 7 8 9 9 9 9 8 8 8 8 7 7 6 6 6 6 7 7 7 7 7 7 7 7 7 7 8 8 10 10 11 11 12 13 12 13 14 14 14
5 5 5 5 5 4 4 4 4 3 4 4 4 2 2 2 3 2 3 4 4 5 4 6 4 3 3 4 5 5 4 4 3 3 3 3 3 2 2 2 6 6 5 5 5 8 8 8 8 8 8 9 9 9 8 8 8 7 7 6 7 7 6 7 7 6 6 7 7 7 7 7 7 7 8 9 10 11 11 12 12 12 13 13 13
4 5 5 5 4 4 4 4 4 4 3 3 3 2 3 4 5 3 4 4 5 5 4 4 4 3 3 4 4 4 3 4 4 4 3 3 3 2 1 1 2 4 6 7 6 7 8 9 8 8 8 9 9 9 9 9 8 7 7 6 5 5 5 5 6 6 7 6 6 7 7 7 7 7 7 8 9 10 10 11 11 11 12 13 13
4 4 4 4 4 4 4 4 4 3 3 3 3 4 4 5 4 4 4 5 5 4 5 5 4 3 3 3 4 3 3 4 4 3 3 3 2 2 2 3 3 2 2 5 5 5 7 8 8 8 8 8 9 9 9 9 8 7 7 6 5 4 4 3 2 3 4 6 7 6 6 6 6 7 7 8 9 9 10 10 10 10 10 11 12
4 5 4 4 4 4 4 5 4 3 4 4 4 3 5 6 5 6 3 3 4 3 4 5 5 4 3 3 4 4 3 4 4 3 3 3 2 2 2 3 3 3 4 3 5 8 7 5 7 7 7 8 8 7 7 7 7 6 5 4 3 2 3 3 3 1 3 4 6 6 7 7 6 7 7 7 8 9 9 10 10 11 11 10 11
4 4 5 5 5 5 5 4 3 4 5 3 4 5 5 5 3 6 6 4 5 4 4 5 4 5 4 4 3 3 3 3 4 4 3 3 2 2 2 2 3 3 4 4 4 5 7 5 3 1 6 7 8 7 5 6 5 5 4 4 2 1 0 3 3 4 3 3 5 5 5 6 7 7 7 8 9 9 10 10 10 10 10 10 10
4 4 5 5 5 5 4 2 2 5 5 5 5 4 6 6 4 2 6 6 5 6 5 5 5 5 5 5 4 3 3 3 3 3 3 3 2 2 2 2 2 4 3 4 4 3 5 4 3 1 1 2 4 6 4 4 5 4 4 3 2 2 4 5 7 8 8 7 5 5 4 5 6 7 7 8 9 9 10 10 9 9 9 9 9
5 4 3 4 4 4 3 4 3 4 5 5 5 3 4 7 5 2 2 6 6 7 6 6 5 5 5 4 4 3 3 2 2 3 2 3 2 2 2 1 2 2 3 4 3 3 3 4 4 3 2 1 1 1 1 2 3 4 5 3 3 5 8 9 10 10 10 10 9 7 6 5 3 7 8 9 8 9 9 10 9 9 9 9 9
5 5 5 4 5 4 5 5 6 6 5 6 5 4 4 4 7 4 3 2 6 6 6 7 6 5 5 4 4 4 3 2 2 3 2 2 2 2 1 3 3 2 3 3 3 3 3 2 3 2 2 1 2 3 3 6 4 4 2 2 6 8 9 10 10 8 8 7 6 5 4 3 6 7 8 9 9 9 9 9 10 10 9 8 7
6 5 5 5 5 5 5 5 6 7 7 6 6 5 6 6 5 7 6 6 5 6 7 8 7 7 6 4 3 4 5 3 3 3 2 2 2 3 1 1 3 3 3 3 3 3 3 3 3 3 3 3 3 3 3 3 3 3 4 5 8 9 9 9 8 7 7 5 4 3 2 2 2 7 9 10 10 10 9 10 10 9 9 7 5
5 5 6 5 5 4 5 4 6 6 6 7 8 7 6 7 6 4 8 8 6 6 6 7 8 5 4 5 4 4 4 4 3 2 2 0 1 3 2 2 3 3 2 2 2 2 2 3 3 2 3 3 3 4 8 5 2 5 6 7 8 9 9 8 8 7 6 4 3 3 2 4 2 4 10 10 10 10 10 10 8 7 7 6 7
6 6 6 6 6 5 5 5 5 6 5 4 5 6 6 6 6 4 2 7 5 7 7 7 3 5 5 4 3 3 4 3 3 3 2 2 2 1 4 3 4 3 2 3 2 2 2 3 3 3 3 3 3 3 5 3 2 4 7 7 8 8 7 8 8 7 5 3 4 4 3 5 6 8 11 10 11 11 10 9 8 6 6 8 11
7 7 7 6 7 7 6 5 5 6 5 4 5 6 6 8 8 8 6 2 4 6 7 1 6 5 5 5 2 1 1 1 2 2 3 2 2 2 2 2 4 2 1 3 2 2 2 2 2 2 3 3 3 3 4 3 3 4 6 7 8 8 8 8 8 6 5 6 6 7 7 8 7 12 13 12 12 10 9 8 10 13 13 12 12
7 7 6 6 7 7 6 5 5 5 6 7 6 7 6 7 6 7 8 8 4 4 4 2 6 10 5 1 2 1 3 3 1 1 2 2 3 2 1 2 3 2 2 3 2 2 2 2 2 3 3 3 3 4 4 3 7 8 8 7 6 8 8 8 8 7 6 7 8 10 10 12 13 13 13 12 10 9 10 13 13 12 12 12 11
7 7 7 7 6 6 6 6 6 5 6 6 7 8 9 8 8 8 8 10 8 4 4 2 6 1 7 5 3 2 2 1 3 1 2 3 2 3 3 2 3 2 2 2 2 3 4 3 3 3 4 3 3 4 4 4 5 3 5 7 7 8 8 8 8 7 7 8 11 13 14 14 14 13 11 10 10 12 13 12 12 11 11 11 11
7 7 7 6 7 6 6 6 6 6 5 6 6 6 7 8 9 9 8 7 9 8 6 3 6 4 0 1 3 5 5 3 3 3 1 1 3 3 3 2 2 2 1 2 3 3 3 4 3 3 3 3 4 4 4 4 4 4 4 4 6 6 7 7 8 8 9 9 11 13 14 13 12 11 11 12 13 13 12 11 11 10 10 11 11
7 7 7 7 6 6 6 6 6 5 5 5 6 7 7 8 7 7 7 7 6 9 9 6 4 3 2 0 0 1 6 8 4 4 3 0 1 2 1 2 2 2 3 2 2 3 3 4 4 3 3 3 4 4 4 4 5 5 6 6 7 6 6 5 7 8 9 10 12 13 14 13 12 12 12 12 12 12 12 11 11 10 10 10 11
8 7 7 7 6 6 6 6 6 6 5 6 8 7 6 5 7 6 6 7 8 9 8 6 9 6 2 1 0 2 6 2 2 4 4 5 4 2 1 3 1 2 3 2 3 4 4 3 4 4 3 3 3 4 4 4 4 4 4 6 6 5 4 4 4 4 7 9 10 11 12 12 12 12 12 12 12 12 12 11 11 11 11 10 11
6 7 7 6 6 7 6 6 7 7 6 5 6 7 8 8 6 6 6 6 7 6 8 8 6 6 5 2 4 3 3 2 3 2 3 4 2 4 3 2 1 1 1 1 2 2 3 4 3 3 3 3 3 3 4 4 4 4 5 7 7 6 6 7 7 7 6 6 9 9 10 10 11 11 12 12 12 12 11 11 11 11 11 11 10
6 6 6 6 6 6 6 7 7 7 6 5 5 6 6 7 8 8 6 7 5 6 8 7 7 5 5 5 4 3 3 1 1 2 2 1 5 8 4 5 5 3 1 2 3 3 2 3 4 3 3 3 3 3 3 4 3 3 5 8 7 7 8 7 8 7 5 5 7 10 10 11 10 11 11 11 11 11 11 11 11 11 11 11 11
5 5 6 6 6 6 7 7 6 6 6 6 6 8 7 8 7 7 7 8 6 6 4 4 6 6 6 7 7 9 8 6 7 5 3 3 4 4 3 4 3 4 2 2 3 3 3 3 4 4 3 3 2 4 3 4 4 4 6 8 8 8 7 7 6 6 5 5 5 7 9 9 10 11 10 10 10 11 11 11 11 11 11 11 11
6 6 6 6 6 6 6 6 6 6 6 6 6 7 6 6 6 7 7 6 5 6 5 6 6 6 6 6 7 7 6 6 6 7 7 5 7 7 6 4 1 1 1 2 1 4 3 4 3 4 3 4 3 3 3 4 4 7 5 7 8 8 7 6 5 4 4 4 6 8 9 9 9 10 10 10 10 10 10 11 11 11 10 10 10
5 6 7 8 7 7 7 7 6 6 6 6 6 7 7 6 6 6 6 6 6 6 6 6 8 8 7 5 6 6 6 3 6 6 4 5 6 7 3 4 2 2 0 2 1 1 2 2 2 2 3 3 3 4 3 4 4 6 6 6 8 8 8 7 5 4 4 4 3 4 7 8 9 9 9 9 9 9 9 9 8 7 6 7 9
6 7 8 8 7 8 8 8 7 7 6 6 6 6 7 7 6 7 6 6 5 6 7 6 6 6 5 6 6 6 5 5 6 6 7 7 6 8 7 3 2 3 0 1 1 2 1 2 3 2 2 2 2 3 3 4 4 7 7 5 6 8 7 6 5 4 4 4 3 3 4 5 7 8 7 7 8 8 8 8 8 8 8 7 6
7 7 5 8 7 7 6 4 5 6 6 6 6 6 6 6 6 7 6 5 6 6 6 6 7 6 5 6 6 5 5 5 7 7 6 7 9 8 9 8 2 1 1 0 1 4 3 1 3 3 3 3 2 1 2 3 5 7 6 5 4 7 7 6 5 5 4 4 5 6 6 6 7 8 8 7 7 7 6 6 7 7 8 7 7
4 2 3 6 7 6 6 8 8 6 6 6 6 6 6 7 6 6 6 4 6 6 5 6 6 7 6 5 5 6 5 6 6 7 6 6 7 7 8 9 10 5 1 3 2 5 2 4 0 2 4 4 3 2 1 2 3 8 7 4 5 5 6 6 5 4 4 4 5 5 5 6 7 7 7 7 6 5 5 5 5 6 6 6 5
6 5 7 6 5 6 7 6 5 5 5 6 6 6 7 7 7 7 7 5 6 7 5 6 5 5 5 6 7 6 6 5 5 5 6 5 6 7 8 10 9 9 7 5 5 6 3 3 5 4 4 4 5 2 3 2 3 5 4 4 5 4 5 6 6 6 5 5 5 5 5 6 7 7 7 6 6 5 5 5 5 5 5 4 5
5 5 6 7 5 7 7 4 2 2 5 5 6 6 7 6 7 7 6 6 6 4 5 5 5 5 4 4 4 5 4 6 6 5 6 6 7 7 7 5 6 10 7 8 7 4 3 3 2 4 3 5 5 4 3 4 5 4 4 5 5 4 7 7 7 7 7 6 6 6 7 7 7 7 6 6 5 5 6 5 5 5 4 5 6
6 8 8 7 6 5 5 5 4 6 6 6 6 6 6 6 5 6 5 6 6 5 4 5 4 5 5 5 3 4 4 5 5 5 5 5 6 6 6 5 5 4 7 5 3 4 3 7 5 2 5 5 5 4 3 4 5 5 4 4 4 6 7 6 8 8 8 7 7 7 7 8 8 8 8 7 7 6 6 7 6 6 8 7 6
6 7 6 6 6 6 5 6 6 5 6 6 7 6 6 5 6 5 5 5 5 5 5 4 4 5 5 5 5 4 4 4 5 5 6 5 5 6 6 6 4 3 4 4 5 5 3 4 4 3 5 6 5 6 4 3 3 7 4 4 4 6 4 4 7 8 8 8 8 8 9 9 9 9 9 8 8 8 9 9 9 10 9 9 9
5 6 5 5 5 6 7 7 8 8 7 6 6 6 6 6 6 6 6 6 6 5 4 4 4 5 6 5 5 4 4 5 5 5 5 5 5 5 5 5 5 4 6 4 4 1 0 0 3 3 3 7 4 4 6 5 4 4 4 3 4 4 4 4 4 7 9 9 9 9 10 10 10 10 10 10 10 10 11 11 10 11 10 10 10
7 6 3 3 3 5 7 7 8 9 7 6 6 6 7 6 6 5 6 6 6 5 4 5 4 4 5 5 5 4 4 5 4 4 5 5 6 6 5 6 6 5 4 5 3 4 4 0 2 2 3 3 5 4 7 7 6 4 5 4 3 4 5 5 5 6 10 10 10 11 11 11 10 11 11 12 12 12 12 12 12 12 12 11 11
8 7 5 3 4 4 5 7 8 7 6 6 6 6 6 7 7 6 6 7 6 6 5 5 5 4 4 4 5 4 4 4 4 5 4 5 5 7 6 5 6 5 5 5 4 3 4 4 3 4 4 4 5 6 5 4 4 5 5 5 6 5 5 5 6 5 9 12 13 12 13 12 12 12 12 13 13 13 13 13 13 13 12 11 11
8 6 3 5 4 6 2 5 7 6 6 6 6 6 7 7 7 7 6 6 6 6 7 6 6 6 6 5 5 5 5 5 4 5 4 5 6 6 6 2 5 1 4 4 5 5 5 6 5 6 5 6 3 2 4 4 5 6 6 4 3 5 6 6 6 6 8 13 14 14 14 14 14 13 14 14 14 14 14 14 14 13 13 12 12
7 6 3 2 4 5 7 9 6 6 7 7 7 5 5 6 7 7 6 6 6 6 6 6 6 6 6 7 6 5 5 5 4 5 5 5 6 3 7 2 6 4 3 4 5 5 5 7 4 1 3 2 2 2 6 7 4 4 3 5 6 6 5 5 5 7 9 11 12 14 14 14 14 15 15 15 15 14 14 14 15 14 14 14 14
8 5 6 4 5 5 9 5 5 5 5 6 6 6 6 5 5 5 6 6 6 5 5 5 6 6 7 6 5 6 6 7 6 4 5 5 4 7 10 8 6 5 5 4 4 5 6 6 6 3 2 6 4 3 5 7 6 5 4 4 3 4 5 6 7 6 4 5 5 7 10 12 14 16 16 16 15 14 14 14 14 15 15 15 15
8 7 7 8 4 4 3 4 5 5 5 4 5 5 5 5 5 5 5 5 4 4 4 5 5 5 5 5 5 6 7 7 6 6 5 4 5 8 9 8 7 5 5 5 5 6 5 4 2 2 3 2 3 5 2 4 3 3 6 4 6 6 5 7 8 6 5 6 8 11 11 10 11 11 14 16 15 14 15 15 15 16 16 16 16
9 10 10 8 5 5 5 5 4 5 6 5 4 4 4 5 5 5 5 5 4 4 4 4 4 4 4 4 5 6 6 6 6 5 6 6 5 6 7 7 6 6 6 5 5 5 5 4 6 5 3 4 2 1 3 4 3 3 5 7 9 8 8 7 8 8 4 4 7 7 7 8 10 13 14 13 14 15 16 15 16 16 17 17 17
7 8 7 9 8 6 5 5 5 4 6 4 3 4 5 4 5 6 5 5 5 5 3 3 2 2 0 0 0 0 1 3 4 5 6 6 6 7 3 3 5 6 3 3 4 4 4 4 4 2 4 3 4 5 5 5 8 11 7 7 7 7 4 3 7 5 6 5 5 4 7 7 7 8 7 7 10 12 13 17 14 18 19 17 16
7 5 7 7 9 9 8 5 5 5 4 3 2 4 2 5 6 6 5 5 5 5 5 4 3 4 4 4 4 7 6 6 4 4 9 12 7 2 8 7 4 5 4 4 2 4 5 6 6 6 5 6 7 8 7 8 7 1 3 6 8 7 0 4 6 6 4 5 5 8 10 5 6 7 6 8 9 6 8 7 11 11 8 10 10
8 7 7 7 9 7 8 8 7 5 4 2 5 5 4 5 5 6 7 5 4 5 5 6 5 5 5 5 4 6 6 6 4 9 8 5 5 6 7 4 5 5 6 6 7 6 7 8 5 6 7 7 8 6 8 3 2 6 4 3 5 0 3 3 7 5 1 8 6 5 11 2 5 7 8 7 9 6 5 7 4 4 9 8 9
6 8 7 7 9 7 7 7 7 5 4 4 5 5 4 5 6 6 6 6 5 5 4 5 5 5 6 6 5 4 4 4 3 5 7 7 7 10 11 10 10 7 3 5 6 5 6 6 6 7 5 6 3 3 3 1 3 3 4 3 4 4 4 4 4 6 2 3 5 3 9 3 4 6 7 9 8 3 5 6 8 9 9 10 11
4 7 9 9 7 6 7 8 7 5 4 5 5 5 6 8 9 9 6 6 7 6 6 6 6 5 5 5 5 5 4 6 5 4 7 9 12 15 15 16 14 13 13 13 6 4 6 6 6 4 3 3 2 3 4 2 2 4 3 5 4 5 5 5 8 6 4 3 4 4 6 6 3 3 6 9 6 2 4 8 11 12 12 13 15
4 5 9 9 7 7 6 8 7 5 5 6 5 7 11 12 12 11 7 8 8 8 7 6 6 6 5 5 5 5 4 4 3 4 6 7 7 7 6 7 8 10 11 12 13 13 8 4 5 4 0 1 3 1 1 2 3 3 3 4 2 4 5 7 6 5 3 4 4 3 3 6 1 3 6 9 6 4 6 7 11 12 13 14 16
4 6 7 8 7 7 6 6 8 7 5 6 8 12 14 14 14 12 8 9 9 9 8 7 7 7 6 6 6 5 4 5 4 3 7 7 7 7 9 9 9 8 9 9 8 7 7 6 7 6 3 2 3 2 0 0 1 2 2 2 4 4 2 0 1 1 3 0 2 2 5 4 1 1 6 7 5 6 6 7 12 12 14 15 16
5 7 7 7 7 7 6 6 8 8 6 9 10 13 15 14 15 9 9 9 9 9 8 7 7 6 5 6 6 6 5 6 7 8 10 8 8 8 9 8 9 7 8 4 6 7 7 6 6 5 3 3 2 3 2 2 3 2 2 3 4 3 2 2 1 2 1 1 2 3 2 3 2 3 5 4 2 4 5 3 6 10 11 13 14
9 7 7 8 7 7 7 6 9 8 7 9 8 12 14 16 12 9 9 9 9 9 8 7 7 7 6 5 5 5 6 6 7 8 10 12 8 8 8 8 6 7 6 4 6 9 10 11 12 12 12 12 11 10 9 7 4 1 2 4 4 1 4 1 3 2 3 3 2 3 0 5 3 2 5 4 3 4 6 5 2 6 10 11 12
8 6 6 9 9 8 8 8 6 9 7 9 9 9 10 12 13 10 8 10 9 8 7 7 6 7 9 13 8 6 7 6 8 10 7 9 9 7 8 7 7 7 6 4 4 5 7 10 11 13 12 11 11 11 11 11 10 6 6 4 1 1 2 1 2 1 4 4 2 1 1 5 3 1 2 5 3 2 2 3 3 3 2 6 9
8 6 5 9 10 9 8 8 12 11 8 8 11 10 11 10 10 9 9 9 10 7 7 7 6 6 7 8 11 8 7 7 11 11 9 7 7 5 6 8 8 7 3 3 4 6 5 7 7 7 9 9 7 6 7 11 11 8 6 3 2 3 1 1 2 1 2 2 1 1 0 2 3 3 1 4 3 3 0 1 2 2 2 0 2
Wind_Direction
165 168 159 164 152 148 150 157 156 154 145 170 164 166 204 234 345 39 61 72 92 112 116 113 122 131 134 136 133 131 128 119 118 116 104 103 117 136 139 133 122 139 144 141 134 125 126 128 126 127 121 111 110 111 112 108 108 109 110 105 103 104 103 102 101 97 96 92 90 86 83 82 82 83 83 81 80 75 73 73 74 73 69 66 64
168 166 166 171 164 159 156 160 166 158 159 176 199 170 183 166 80 83 102 108 142 126 123 131 136 135 140 137 136 135 130 128 117 109 104 94 116 140 143 134 144 163 154 140 137 131 126 116 113 115 114 120 121 118 113 117 121 119 115 112 109 108 103 101 101 101 99 99 100 98 90 86 84 84 85 84 79 76 76 76 77 76 75 71 70
171 173 174 169 168 164 170 153 166 179 179 196 192 190 172 152 150 156 157 124 166 131 129 138 140 137 145 137 133 127 128 120 113 108 99 101 100 117 140 148 158 152 136 140 137 129 120 118 122 125 129 130 129 125 124 122 124 124 120 117 116 113 110 106 107 111 109 108 107 106 102 95 92 89 87 88 84 78 76 76 75 75 75 74 74
182 180 174 170 171 174 164 167 199 182 189 199 203 177 121 129 134 106 109 138 138 111 127 135 133 125 127 121 122 126 131 126 119 114 112 106 105 101 117 142 150 144 117 108 113 120 124 127 127 129 136 138 132 127 125 123 123 119 113 116 122 122 123 123 123 124 124 122 121 116 111 109 102 97 92 89 90 88 83 79 74 70 72 74 74
198 189 180 174 169 169 179 195 193 187 189 198 195 108 106 96 81 94 102 110 110 105 104 99 111 105 107 106 112 117 125 119 120 120 120 113 99 90 72 81 92 108 116 117 116 124 126 131 135 141 140 137 131 131 133 131 127 122 125 134 133 135 133 134 128 131 136 132 128 126 126 120 114 107 100 96 94 94 88 82 78 72 68 71 70
190 201 186 167 169 179 194 205 197 178 183 183 164 127 119 110 105 105 129 134 127 125 124 108 88 85 85 99 103 115 119 117 127 127 117 108 101 84 71 64 63 49 68 114 105 129 141 136 139 144 145 140 142 139 142 143 139 136 146 153 148 130 119 119 85 134 146 148 144 138 132 129 123 115 109 102 97 95 94 90 88 83 78 75 73
194 187 189 175 175 191 202 215 182 169 179 197 135 132 135 124 128 110 98 89 102 109 110 105 110 105 94 95 110 111 107 126 127 123 116 109 98 91 82 88 90 82 77 49 63 66 67 106 140 149 151 150 153 158 154 151 151 153 153 151 154 90 59 104 129 149 147 171 164 152 147 139 128 120 114 114 108 104 98 96 93 89 84 80 76
185 183 183 187 180 192 211 215 178 163 184 159 126 141 132 117 126 138 125 111 115 88 75 99 94 103 102 96 93 111 115 125 130 119 116 113 112 111 105 110 105 117 92 72 65 75 95 88 58 105 160 167 168 183 167 164 159 161 166 164 144 72 67 143 134 127 117 143 162 167 155 146 141 134 125 121 119 110 100 95 93 88 82 81 82
185 192 173 180 185 189 190 171 150 159 167 141 130 151 138 125 126 160 138 136 124 115 99 91 99 88 83 96 109 119 121 136 125 117 110 120 122 110 112 125 138 110 79 85 76 68 82 106 137 128 343 193 192 194 206 208 197 193 220 217 215 137 127 123 110 89 85 85 102 119 137 158 157 145 131 118 110 113 111 103 99 94 92 86 82
184 186 171 174 179 170 147 133 141 141 136 125 127 150 136 133 125 81 123 131 133 135 129 118 109 93 81 75 108 120 122 104 112 107 118 130 128 126 132 115 85 73 82 79 78 68 51 53 59 45 65 52 337 99 289 265 244 211 213 190 146 137 125 112 95 91 84 82 81 88 85 85 138 154 137 131 125 115 110 106 100 97 94 88 79
183 182 166 167 161 161 146 147 129 117 134 138 123 143 138 128 132 115 83 85 127 136 131 127 117 97 79 77 98 119 119 104 80 98 101 114 152 140 115 124 99 63 71 76 75 79 68 56 52 47 21 125 239 199 228 238 225 240 217 164 147 127 117 101 93 86 82 81 79 71 60 63 107 146 148 137 128 121 116 114 109 101 96 92 93
185 182 166 167 164 169 159 146 131 135 165 158 145 158 151 130 134 130 117 112 111 128 130 120 107 103 103 92 80 93 122 107 105 93 102 147 151 117 77 95 103 96 80 84 84 67 70 64 58 46 46 38 106 157 225 104 232 222 149 157 140 126 107 101 96 86 78 75 77 78 87 92 104 138 155 141 134 125 119 111 105 101 101 108 115
183 174 169 171 170 171 162 158 147 145 173 181 162 163 156 141 137 134 137 131 133 133 126 124 118 99 86 85 74 74 109 98 82 84 85 73 55 97 96 66 93 86 70 82 76 64 73 78 71 56 53 52 37 95 108 117 38 145 148 142 134 109 103 100 96 84 72 64 56 49 86 122 127 129 144 142 128 118 108 105 110 116 117 117 90
179 177 170 169 168 180 182 172 158 158 183 194 150 149 136 131 136 110 156 147 138 144 148 132 82 132 137 123 80 70 97 104 128 114 117 116 107 125 118 103 86 79 80 81 83 95 78 72 64 56 48 60 65 60 93 126 199 155 141 133 111 103 108 107 98 92 91 85 61 59 94 120 138 130 133 133 117 109 109 118 125 129 115 98 86
182 178 174 178 178 178 188 174 159 152 157 174 154 148 152 152 160 150 146 122 109 142 157 85 126 112 93 97 111 91 42 77 109 119 147 135 117 114 132 129 102 88 128 103 81 104 92 81 75 67 54 54 56 68 92 128 139 143 114 107 111 116 115 108 102 100 90 71 68 78 91 109 119 118 123 120 113 116 122 118 106 96 95 92 86
183 181 179 179 179 184 181 174 170 159 159 167 171 161 163 164 159 158 149 138 145 160 163 182 142 132 124 150 121 48 136 224 137 149 144 149 146 154 158 129 105 122 159 126 119 120 110 109 91 77 73 67 60 67 75 76 79 81 83 88 103 114 115 112 108 102 94 84 83 91 94 104 107 117 117 112 111 108 105 100 95 94 92 89 86
182 184 183 181 183 182 177 179 174 166 162 169 178 177 176 170 163 156 167 156 157 146 182 170 171 147 133 130 92 201 235 115 126 53 146 141 148 158 160 134 136 160 134 148 134 140 138 111 98 88 87 81 74 72 66 61 62 61 73 88 92 109 115 116 113 106 102 92 96 99 97 97 100 99 99 102 106 106 100 97 95 90 88 86 83
182 185 188 181 181 185 180 175 179 172 168 176 180 164 169 171 173 165 164 171 152 156 167 197 190 189 173 99 148 165 166 170 159 186 63 57 133 128 113 111 123 118 131 157 150 147 145 128 109 105 89 83 87 78 70 66 70 67 63 86 100 109 113 121 120 118 109 102 106 104 102 101 101 103 107 108 103 98 99 94 93 92 88 87 86
185 186 188 187 181 181 182 182 178 177 172 165 175 179 178 179 168 166 169 153 150 160 176 168 176 260 236 335 83 207 147 147 190 103 155 257 166 114 93 130 145 151 166 185 155 145 146 132 124 108 92 90 90 90 79 68 69 68 82 79 87 99 120 137 132 124 119 117 115 119 114 115 117 116 113 109 104 104 100 99 96 95 93 90 91
183 188 189 187 180 180 180 175 175 183 175 181 178 178 173 181 181 165 150 164 166 166 175 167 179 197 183 264 24 131 144 46 143 159 134 154 163 91 85 133 146 175 187 173 171 158 146 132 127 118 110 99 97 91 94 86 77 77 81 92 87 83 75 89 97 110 122 122 121 115 114 115 118 117 116 114 111 108 107 106 103 99 97 94 91
193 188 188 185 180 179 176 176 178 185 185 180 177 172 175 175 174 157 165 176 182 172 162 178 183 182 143 78 89 115 110 52 116 91 134 152 116 173 166 87 92 295 223 171 163 157 154 146 139 131 125 111 99 100 96 93 89 83 94 101 100 98 97 91 86 75 53 116 132 130 125 125 128 124 116 113 112 112 112 111 110 106 103 100 95
192 197 187 185 181 177 178 182 187 184 180 168 165 168 178 181 181 181 172 179 186 170 177 175 181 167 156 140 122 108 81 65 131 120 66 45 166 183 176 160 165 219 154 135 160 146 128 131 127 124 118 116 114 107 102 101 99 93 104 109 108 103 98 92 87 82 75 77 125 140 140 138 135 125 120 119 118 119 120 119 117 113 109 105 102
186 192 191 182 180 180 184 191 189 185 173 163 175 174 182 182 182 180 177 180 181 174 174 167 165 162 158 159 160 168 175 177 186 176 158 148 118 157 143 164 177 177 234 163 156 151 133 133 146 145 145 135 127 121 119 121 112 118 120 110 106 104 101 99 98 106 117 120 120 135 143 144 135 126 128 129 130 132 131 127 123 119 115 110 110
188 184 187 184 178 185 191 192 191 189 186 175 175 176 176 176 173 179 187 187 175 171 172 164 167 171 169 171 175 183 180 177 180 168 167 166 158 160 159 127 122 258 123 82 110 152 149 166 169 156 149 140 140 142 141 126 128 128 117 116 111 109 109 104 101 100 113 132 134 141 142 141 136 135 137 141 139 136 133 132 129 125 122 120 116
203 190 190 183 178 182 190 193 196 198 189 175 180 173 167 171 171 177 182 183 181 176 176 185 175 177 181 181 174 181 189 159 148 162 136 138 144 142 137 135 138 180 1 121 158 55 145 165 133 131 141 143 149 152 149 141 137 130 126 120 121 114 115 117 109 104 107 107 125 142 145 147 149 145 140 144 148 138 121 95 80 77 92 118 123
218 206 189 182 185 190 190 195 195 192 186 179 174 169 165 170 170 174 183 187 172 179 188 186 186 189 160 165 182 186 174 164 159 151 154 141 150 157 146 136 106 169 23 103 136 118 287 137 125 122 117 135 157 158 156 150 136 137 128 126 120 118 114 111 109 105 92 83 86 111 141 156 154 148 135 108 89 87 93 97 96 92 86 75 80
206 232 188 185 189 189 179 201 215 193 179 172 174 168 167 164 171 178 179 175 180 176 186 178 184 182 178 179 178 182 169 172 163 175 167 170 157 160 151 143 85 84 140 77 144 215 184 177 150 136 146 141 147 201 166 157 146 131 123 120 123 119 114 116 118 115 112 109 100 91 91 89 88 93 100 108 112 112 109 103 110 103 93 85 70
187 241 249 217 187 185 168 202 207 190 177 174 171 169 167 162 164 166 178 175 171 178 182 178 186 182 181 170 165 187 170 172 180 176 178 168 159 158 166 157 151 172 184 183 199 234 188 161 8 167 154 155 158 166 209 160 152 146 132 130 131 127 127 132 133 131 136 134 126 124 121 122 122 122 125 130 134 134 125 122 121 116 107 97 80
183 186 221 220 183 160 180 212 208 188 179 178 171 170 167 164 163 167 175 172 168 183 170 178 185 173 174 176 184 177 174 171 178 178 170 160 169 171 177 169 170 153 167 196 222 202 231 178 168 233 168 154 160 169 169 175 191 151 140 143 144 147 154 158 158 163 159 157 154 156 156 156 152 149 150 150 151 154 150 146 144 137 135 126 118
173 182 212 208 175 173 166 165 266 274 209 181 176 171 164 164 164 170 172 163 169 166 177 174 173 170 170 174 173 170 161 166 183 175 171 172 170 181 187 185 165 166 169 175 216 201 182 222 175 172 189 168 160 169 176 177 198 156 157 156 162 170 174 175 174 176 174 175 176 179 182 181 176 174 169 171 174 170 171 175 170 170 170 167 154
164 181 201 197 180 176 171 155 169 221 217 182 175 169 164 155 154 156 158 162 163 173 176 168 169 162 168 182 180 165 160 166 160 166 175 170 179 177 185 170 189 176 168 158 156 252 169 191 222 203 168 175 164 159 173 173 183 169 172 170 177 182 177 183 185 185 186 187 189 195 199 199 197 193 192 194 196 197 199 200 199 199 196 187 171
182 187 193 187 176 166 172 161 148 208 214 175 169 163 156 156 150 148 163 156 165 176 178 178 161 167 168 179 186 174 167 153 159 166 175 181 171 174 178 179 173 147 135 142 175 203 223 197 187 187 163 155 157 161 179 175 189 174 187 184 185 176 182 192 199 198 195 196 201 206 213 207 206 207 210 210 211 211 213 213 210 209 208 201 185
181 173 178 194 177 170 171 175 166 190 203 167 167 157 157 158 159 158 158 163 172 177 174 181 176 166 170 179 189 185 159 166 172 163 166 173 168 175 174 170 159 150 147 151 172 147 59 65 142 171 154 139 165 176 167 175 184 187 190 198 185 181 192 199 205 212 213 210 209 216 225 225 215 217 217 218 218 219 219 219 218 218 216 211 197
196 178 162 166 142 193 184 174 170 185 184 165 161 162 162 160 162 162 160 166 173 175 175 185 177 177 164 174 187 180 176 169 163 169 169 163 169 167 180 181 171 175 177 146 161 146 193 306 74 59 137 177 164 180 178 180 195 183 193 198 202 197 199 202 209 223 220 222 221 220 227 231 230 226 225 223 224 222 223 222 222 222 223 220 210
201 187 155 139 209 184 199 176 170 170 168 162 163 165 170 167 165 166 165 168 171 172 181 187 183 168 168 178 189 181 167 163 171 174 161 161 160 178 188 187 178 169 187 164 122 165 179 229 180 161 179 183 183 188 191 182 174 182 190 202 202 204 212 202 211 223 222 222 225 225 226 229 232 232 230 230 227 226 226 226 226 226 227 227 220
185 180 129 163 202 172 178 213 175 166 163 161 167 173 171 170 167 168 166 171 173 176 180 184 179 176 182 185 200 183 170 178 174 165 177 162 168 170 182 109 79 177 210 173 164 175 183 186 228 190 182 166 227 151 159 155 167 188 207 211 224 221 216 210 213 224 226 222 227 228 228 229 230 231 233 233 232 229 227 227 228 228 228 228 226
173 150 112 155 166 166 196 206 169 168 168 165 168 173 173 173 171 167 167 169 177 180 183 183 178 180 179 192 193 179 180 187 181 164 177 181 195 145 92 167 177 174 190 197 184 175 167 200 201 190 147 162 168 146 165 163 183 200 212 210 214 225 230 231 228 233 239 230 230 233 235 236 236 236 236 236 236 235 232 230 228 228 226 226 226
153 150 158 173 180 190 204 181 158 159 160 162 166 171 173 171 167 165 168 175 177 172 179 181 181 183 184 190 183 180 183 193 197 176 175 188 154 124 160 193 188 162 157 193 196 190 190 207 171 152 173 169 173 188 181 180 171 190 222 245 263 243 233 249 241 238 231 225 228 233 235 238 239 240 242 241 239 237 237 236 234 231 228 227 225
136 141 171 177 150 201 177 133 134 133 125 125 135 152 163 165 164 165 171 176 167 172 186 186 185 187 188 175 175 181 185 194 188 184 175 162 150 160 174 183 198 181 177 177 181 184 197 175 163 184 165 209 160 185 189 169 172 177 192 209 254 242 227 225 250 243 222 237 237 231 229 224 229 235 241 243 244 243 240 239 237 234 232 229 226
138 168 177 152 132 172 129 115 109 116 117 109 111 124 143 156 157 168 173 170 166 179 188 193 180 188 188 180 181 188 191 189 190 179 165 154 158 170 195 184 178 182 194 164 150 161 171 176 185 187 179 161 164 84 103 121 170 245 211 191 218 231 228 223 230 240 231 205 248 250 242 238 243 244 246 245 240 236 239 244 243 239 235 231 226
139 165 156 129 143 120 97 109 110 102 103 105 110 117 128 137 147 150 163 163 167 169 171 163 155 149 108 53 39 158 227 192 175 166 137 139 157 183 151 121 174 185 181 141 135 145 177 178 189 129 142 160 183 147 144 175 188 208 197 181 227 242 236 263 260 236 228 230 255 264 258 222 238 242 241 252 245 229 235 232 239 239 236 233 230
122 122 128 139 135 127 123 115 105 98 92 98 66 72 95 137 141 136 137 152 154 150 137 123 92 73 71 75 68 74 68 73 79 111 155 180 204 158 147 184 174 177 150 105 121 182 182 188 195 171 167 195 189 196 188 207 207 133 128 176 214 237 140 268 291 250 197 196 243 261 260 228 209 260 237 245 255 211 233 222 230 237 253 250 248
138 138 127 143 122 130 131 131 114 100 93 59 35 62 71 111 128 133 139 139 132 132 143 136 120 99 78 74 69 59 59 55 67 98 131 135 169 171 152 155 176 179 168 168 207 189 191 203 183 173 192 198 211 198 211 184 159 194 198 177 226 291 210 243 268 311 208 191 210 233 270 243 160 240 253 242 254 231 228 244 296 256 240 229 215
128 129 136 127 120 124 119 109 98 94 84 35 47 69 92 109 126 123 128 132 126 103 93 95 99 98 88 71 53 42 44 61 81 93 101 99 85 76 88 83 74 53 64 179 189 193 195 177 171 196 181 209 200 191 240 220 212 182 209 179 180 197 211 226 242 250 261 177 186 205 263 248 161 216 254 255 253 224 222 220 216 215 204 200 189
100 134 130 116 111 114 111 105 93 77 79 27 55 86 106 104 103 101 86 94 95 90 84 86 88 85 84 78 62 45 17 36 60 88 105 93 85 88 92 89 77 74 70 66 71 178 172 160 169 175 190 175 150 209 200 210 180 209 191 207 210 201 203 216 239 257 275 190 148 226 254 270 132 213 246 269 282 235 227 215 210 200 193 187 183
126 133 113 112 112 105 101 103 97 75 63 9 55 103 103 96 93 88 85 84 81 76 72 75 77 71 68 81 73 49 26 42 48 86 101 104 101 91 72 64 68 58 54 56 63 62 75 116 115 112 218 150 130 155 223 182 139 164 157 224 208 206 212 221 235 242 265 145 193 183 280 285 268 190 247 268 256 247 237 227 207 202 194 190 187
118 104 107 107 98 98 92 94 91 70 35 17 99 109 102 98 91 90 89 87 82 77 70 70 74 77 75 77 79 68 48 52 23 96 107 103 100 95 81 67 53 48 43 32 35 44 55 62 80 93 108 87 98 124 130 347 126 137 159 167 190 189 199 311 345 6 317 191 152 125 251 269 297 191 248 258 271 264 248 231 214 205 200 197 197
64 75 66 73 79 73 67 78 86 69 38 40 104 108 106 100 94 90 89 87 88 83 78 74 75 71 70 74 77 63 55 60 33 86 109 110 99 96 89 86 76 58 54 23 28 40 53 66 70 74 69 80 98 98 45 27 28 21 46 58 61 54 58 38 316 298 309 272 168 156 235 267 233 205 269 261 259 277 272 248 242 216 207 204 204
74 51 66 71 60 60 60 64 82 75 54 29 79 106 109 106 95 96 94 90 86 84 77 73 73 70 64 63 68 71 60 56 26 67 95 106 96 95 95 84 81 73 49 14 37 51 61 67 67 63 68 68 63 60 57 59 70 35 79 61 25 36 54 10 316 359 299 333 316 156 215 306 275 232 296 294 322 290 297 296 269 225 218 213 210
79 68 69 75 65 57 55 56 60 83 61 31 50 84 96 100 109 108 105 101 92 91 88 73 75 73 63 65 70 68 66 52 43 64 69 98 104 113 111 102 74 62 34 9 38 45 56 63 65 67 66 64 64 61 52 45 41 34 74 74 301 73 51 128 254 259 291 312 280 173 203 240 300 343 288 293 336 262 298 341 356 354 269 232 222
88 83 70 78 74 61 50 55 53 63 60 37 36 60 80 93 103 109 109 106 100 91 93 84 68 71 67 58 58 58 72 65 62 61 62 85 102 115 120 100 89 71 20 11 48 61 54 61 43 52 46 40 42 46 40 41 46 44 51 80 116 105 129 264 242 311 0 306 283 343 250 286 359 291 137 321 305 282 62 297 3 350 344 276 210